sat.trackr.live / text

‹ back to catalog

IRIDIUM 174

NORAD 56728 · 2023-068U

PAYLOAD ACTIVE UNKNOWN

§ Identity

Operator
Country
US
Launch date
2023-05-20
Launch site
AFWTR
Launch vehicle
Mass (kg)
RCS (m²)

Purposes: comms

External: N2YO · Heavens-Above · Gunter

§ Orbital elements

Epoch: 2026-05-25T02:40:54.280704Z

Period
97.81 min
Inclination
86.6114°
Eccentricity
0.0002607
Mean motion
14.72254622 rev/d
Perigee alt
652.0 km
Apogee alt
655.7 km
Semi-major
7,032.0 km
B*
1.0990e-4
RAAN
3.3396°
Arg perigee
87.4855°
Mean anomaly
272.6660°
Rev number
16,262

§ Raw data

IRIDIUM 1741 56728U 23068U   26145.11173936  .00000718  00000+0  10990-3 0  99932 56728  86.6114   3.3396 0002607  87.4855 272.6660 14.72254622162623

JSON: /api/v1/satellites/56728 · /tle

For live sub-satellite position, see the globe view (requires WebGL).

§ Visibility from observer

Set your observer location to see the next 7 days of passes ≥ 10°. The values pass through the URL so the page stays shareable.

No JS? Fill the form by hand. The geolocation button needs JavaScript.